Location: ???????
(55.3754°N, 39.3545°E)
Time: 06:29:30
(UTC+00:00)

Cosmos 2151 Rocket - Pass Details

Date: 14 April 2026
Orbit: 611 x 636 km, 82.5° (Epoch: 10 May)

Event Time Altitude Azimuth Distance (km) Brightness Sun altitude
Exits shadow 21:27:46 52° 284° (WNW) 778 4.0 -25.0°
Maximum altitude 21:27:49 52° 287° (WNW) 778 4.0 -25.0°
Drops below altitude 10° 21:32:08 10° 4° (N) 1,993 7.2 -24.9°
Sets 21:34:25 0° 10° (N) 2,900 8.4 -24.9°
